This is the latest recevied weather packets stored in our database for station/object K4AGR-13. If no packets are shown the sender has not sent any weather packets the latest 10 day(s).
| Time | Temp. | Humidity | Pressure | Rain* | Wind** | Luminosity | Snow |
|---|---|---|---|---|---|---|---|
| 1777709405 | 13.89° C | 97% | 1010.4 hPa | 1.78 mm | - | 0 W/m² | - |
| 1777709103 | 13.89° C | 97% | 1010.3 hPa | 1.27 mm | - | 0 W/m² | - |
| 1777708801 | 13.89° C | 97% | 1010.3 hPa | 3.05 mm | - | 0 W/m² | - |
| 1777708498 | 13.89° C | 97% | 1010.5 hPa | 6.1 mm | - | 0 W/m² | - |
| 1777708196 | 13.89° C | 97% | 1010.9 hPa | 6.1 mm | - | 0 W/m² | - |
| 1777707894 | 13.89° C | 97% | 1010.8 hPa | 4.32 mm | - | 0 W/m² | - |
| 1777707589 | 13.89° C | 97% | 1011.1 hPa | 3.05 mm | - | 0 W/m² | - |
| 1777707285 | 13.89° C | 97% | 1010.8 hPa | 6.6 mm | - | 0 W/m² | - |
| 1777706984 | 13.89° C | 97% | 1010.7 hPa | 8.89 mm | - | 0 W/m² | - |
| 1777706680 | 13.89° C | 97% | 1010.9 hPa | 10.16 mm | - | 0 W/m² | - |
| 1777706378 | 13.89° C | 97% | 1011.1 hPa | 9.65 mm | - | 0 W/m² | - |
| 1777706075 | 13.89° C | 97% | 1011.5 hPa | 4.83 mm | - | 0 W/m² | - |
| 1777705773 | 13.89° C | 97% | 1011.2 hPa | 1.27 mm | - | 0 W/m² | - |
| 1777705471 | 13.89° C | 97% | 1011 hPa | 0 mm | - | 0 W/m² | - |
| 1777705170 | 13.89° C | 97% | 1010.8 hPa | 1.78 mm | - | 0 W/m² | - |
| 1777704868 | 13.89° C | 97% | 1010.7 hPa | 1.78 mm | - | 0 W/m² | - |
| 1777704566 | 13.89° C | 97% | 1010.5 hPa | 0 mm | - | 0 W/m² | - |
| 1777704263 | 13.89° C | 97% | 1010.6 hPa | 0 mm | - | 0 W/m² | - |
| 1777703960 | 13.89° C | 97% | 1011.1 hPa | 0 mm | - | 0 W/m² | - |
| 1777703658 | 13.89° C | 97% | 1011.4 hPa | 1.27 mm | - | 0 W/m² | - |
| 1777703355 | 13.89° C | 97% | 1011.3 hPa | 4.32 mm | - | 0 W/m² | - |
| 1777703052 | 13.89° C | 97% | 1011.6 hPa | 7.87 mm | - | 0 W/m² | - |
| 1777702751 | 13.89° C | 97% | 1011.6 hPa | 10.16 mm | - | 0 W/m² | - |
| 1777702449 | 13.89° C | 97% | 1012.1 hPa | 8.89 mm | - | 0 W/m² | - |
| 1777702144 | 13.89° C | 97% | 1011.8 hPa | 4.83 mm | - | 0 W/m² | - |
* Rain latest hour (hover to see other rain measurements)
** Current wind speed in m/s (hover to see current wind gust speed)